Regional Weather Roundup
Issued by NWS Kansas City/Pleasant Hill, MO

Home | Current Version | Previous Version | Text Only | Print | Product List | Glossary On
Versions: 1 2 3 4 5 6 7 8 9 10 11 12 13 14 15 16 17 18 19 20 21 22 23 24 25 26 27 28 29 30 31 32 33 34 35 36 37 38 39 40 41 42 43 44 45 46 47 48 49 50
800
ASUS43 KEAX 181910
RWREAX

WEATHER ROUNDUP FOR EASTERN KANSAS AND NORTHWEST MISSOURI
NATIONAL WEATHER SERVICE KANSAS CITY/PLEASANT HILL MO
100 PM CST SAT NOV 18 2017

KSZ040-057-103>105-MOZ028-029-037-043-182000-
...KANSAS CITY METROPOLITAN AREA...

CITY           SKY/WX    TMP DP  RH WIND       PRES   REMARKS
K.C. INTL      CLOUDY    46  34  62 NW17G28   29.93R
K.C. DOWNTOWN  CLOUDY    48  33  56 NW16G26   29.92R
LEES SUMMIT    CLOUDY    46  36  68 NW23G29   29.91R
OLATHE - IXD   LGT RAIN  46  34  62 NW21G30   29.95R
OLATHE - OJC   CLOUDY    45  33  63 NW17G28   29.93R
LAWRENCE       CLOUDY    48  30  49 NW22G30   29.97R

$$

MOZ001>008-011>017-020>025-030>033-038>040-044>046-053-054-182000-
...NORTHERN AND CENTRAL MISSOURI...

CITY           SKY/WX    TMP DP  RH WIND       PRES   REMARKS
ST. JOSEPH     MOSUNNY   48  32  53 NW25G36   29.94R
MOSBY          CLOUDY    46  34  61 NW16G25   29.92R
WARRENSBURG    CLOUDY    45  37  76 NW15G24   29.88R
WHITEMAN AFB   PTSUNNY   44  40  83 NW16G29   29.82R
CLINTON        PTSUNNY   45  43  93 MISG      29.88R
SEDALIA        LGT RAIN  44  42  93 NW17G30   29.84R
WARSAW         NOT AVBL
CHILLICOTHE      N/A     45  35  68 NW14G23   29.87R
KIRKSVILLE     CLOUDY    42  38  85 NW17G28   29.78R WCI  34

$$

MOZ041-047>049-056>058-063>065-088>090-097-182000-
...EASTERN AND SOUTHERN MISSOURI...

CITY           SKY/WX    TMP DP  RH WIND       PRES   REMARKS
ST. LOUIS INTL LGT RAIN  44  42  93 NW20G31   29.56R FOG
SPIRIT OF STL  CLOUDY    44  41  89 NW16G28   29.61R
COLUMBIA       LGT RAIN  42  40  92 NW18G31   29.76R WCI  34
JEFFERSON CITY RAIN      43  40  89 NW20G25   29.77R FOG     WCI  34
ROLLA          RAIN      41  40  96 NW20G32   29.72R FOG     WCI  32
OSAGE BEACH    LGT RAIN  42  40  92 NW10G22   29.81R
SPRINGFIELD    LGT RAIN  44  41  89 NW24G35   29.86R WCI  35
BRANSON        CLOUDY    46  39  76 NW16G31   29.83R
JOPLIN         LGT RAIN  45  43  93 NW21G33   29.97R
WEST PLAINS    LGT RAIN  49  40  71 NW28G39   29.69R

$$

IAZ060-094-KSZ022-034>040-054-083-096-NEZ052-066-093-182000-
...KANSAS...SOUTHEAST NEBRASKA AND IOWA...

CITY           SKY/WX    TMP DP  RH WIND       PRES   REMARKS
TOPEKA         CLOUDY    50  37  61 NW21G29   29.99R
MANHATTAN      PTSUNNY   53  37  54 NW9G24    30.05R
EMPORIA        CLOUDY    49  35  58 NW22G37   30.02S
CHANUTE        CLOUDY    48  30  49 NW16G31   30.01R
WICHITA        MOSUNNY   53  36  52 NW26G37   30.09F
OMAHA          MOSUNNY   48  32  53 NW24G37   29.97S
LINCOLN        MOSUNNY   52  31  44 NW24G33   30.03R
FALLS CITY     PTSUNNY   49  36  61 NW18G31   29.97R
LAMONI         CLOUDY    44  30  57 NW20G33   29.85R
DES MOINES     PTSUNNY   43  29  57 NW22G31   29.84R WCI  34

$$





USA.gov is the U.S. government's official web portal to all federal, state and local government web resources and services.